Simultaneous Nadir Overpasses (SNOs) Predictions

Prediction of SNOs between NOAA-20 and AQUA Satellite Orbit:

Table of predicted SNOs for the next 14.0 days since TLE Epoch: 1/24/2025
Index Date (NOAA-20) Time (NOAA-20) Lat,Lon (NOAA-20) SZA (NOAA-20 ) Date (AQUA) Time (AQUA) Lat,Lon (AQUA) SZA (AQUA ) Distance(km) Time Diff (sec)
1 01/26/2025 18:14:00 -81.32, 16.89 74.27 01/26/2025 18:14:04 -81.32, 16.92 74.28 0.61 4
2 01/29/2025 04:35:39 81.32, 41.78 105.07 01/29/2025 04:35:41 81.32, 41.66 105.09 2.13 2
3 01/31/2025 14:57:20 -81.32, 66.43 75.59 01/31/2025 14:57:18 -81.32, 66.28 75.57 2.48 2
4 02/03/2025 01:19:01 81.32, 90.76 103.76 02/03/2025 01:18:53 81.31, 90.72 103.77 0.82 8
5 02/05/2025 10:49:57 81.32, -52.16 103.09 02/05/2025 10:51:07 81.31, -52.32 103.07 2.86 70
6 02/05/2025 11:40:41 -81.32, 115.63 77.00 02/05/2025 11:40:26 -81.32, 115.57 76.98 1.13 15
7 02/07/2025 21:11:37 -81.32, -27.37 77.69 02/07/2025 21:12:38 -81.32, -27.35 77.73 0.89 61



Historial Predications of SNOs between NOAA-20 and AQUA
